Weather Roundup
Issued by NWS

Home | Current Version | Previous Version | Graphics & Text | Print | Product List | Glossary Off
Versions: 1 2 3 4 5 6 7 8 9 10 11 12 13 14 15 16 17 18 19 20 21 22 23 24 25 26 27 28 29 30 31 32 33 34 35 36 37 38 39 40 41 42 43 44 45 46 47 48 49 50

417
NZUS93 KARX 232159
HRRWXR

CURRENT HOURLY OBSERVATIONS ACROSS
MUCH OF THE UPPER MISSISSIPPI VALLEY
NATIONAL WEATHER SERVICE LA CROSSE WI
500 PM CDT TUE MAY 23 2017


...SOUTHEAST MINNESOTA...


CITY           SKY/WX    TMP DP  RH WIND       PRES   REMARKS
ROCHESTER      LGT RAIN  50  49  96 N12       29.77S
ROCHESTER/MAYO NOT AVBL
WINONA         CLOUDY    55  48  76 N5        29.75S
AUSTIN         DRIZZLE   52  46  82 N7        29.77R
ALBERT LEA     LGT RAIN  54  50  87 N10       29.78S
DODGE CENTER   DRIZZLE   50  48  93 N9        29.78S
PRESTON        CLOUDY    51  48  89 N8        29.75S
OWATONNA       RAIN      54  48  82 N7        29.79S
FARIBAULT      DRIZZLE   55  48  76 N9        29.80S
$$

...ELSEWHERE IN MINNESOTA...


CITY           SKY/WX    TMP DP  RH WIND       PRES   REMARKS
MINNEAPOLIS    CLOUDY    60  44  55 NE13      29.79F
INTNL FALLS    CLOUDY    56  42  59 E7        29.94S
DULUTH         PTSUNNY   53  46  77 E13       29.87R
RED WING       LGT RAIN  57  48  72 N5        29.77F
REDWOOD FALLS  PTSUNNY   59  42  53 N9        29.83R
MANKATO        LGT RAIN  51  48  89 N10       29.82R
WORTHINGTON    CLOUDY    55  45  68 N16       29.82F
FAIRMONT       RAIN      51  48  89 NE10      29.81R
$$

...SOUTHWEST WISCONSIN...


CITY           SKY/WX    TMP DP  RH WIND       PRES   REMARKS
LA CROSSE      LGT RAIN  58  51  78 N10       29.72S
PRAIRIE DU CHI PTSUNNY   61  47  60 W8        29.70F
BOSCOBEL       CLOUDY    63  52  67 NW7       29.70S
LONE ROCK      CLOUDY    62  52  69 SW10      29.69S
PLATTEVILLE    CLOUDY    60  53  77 CALM      29.71S
FORT MC COY    LGT RAIN  54  53  97 N6        29.73R
MAUSTON-NEW LI HVY RAIN  55  52  90 N12G17    29.69S
VIROQUA        CLOUDY    55  53  95 MISG      29.71F
WIS DELLS      CLOUDY    62  49  64 SE6       29.69F
$$

...ELSEWHERE IN WISCONSIN...


CITY           SKY/WX    TMP DP  RH WIND       PRES   REMARKS
MILWAUKEE      LGT RAIN  58  55  90 SE9       29.71F
MADISON        CLOUDY    61  50  67 SW3       29.70R
GREEN BAY      LGT RAIN  51  51 100 NE12      29.77F
EAU CLAIRE     NOT AVBL
BLACK RVR FLS  CLOUDY    60  44  55 NE9       29.73S
MEDFORD        CLOUDY    54  45  71 NE8       29.77S
WAUSAU         CLOUDY    57  44  62 NE8       29.75S
WIS RAPIDS     CLOUDY    57  47  69 E14       29.75S
MARSHFIELD     CLOUDY    58  44  60 NE18      29.74S
RICE LAKE      PTSUNNY   57  46  65 N10       29.81F
$$

...NORTHEAST IOWA...


CITY           SKY/WX    TMP DP  RH WIND       PRES   REMARKS
WATERLOO       CLOUDY    59  46  62 N7        29.73F
DUBUQUE        CLOUDY    61  49  64 CALM      29.70F
DECORAH        CLOUDY    55  50  82 N7        29.72S
MASON CITY     CLOUDY    54  48  80 N10       29.78F
CHARLES CITY   CLOUDY    55  50  82 N12       29.75S
OELWEIN        LGT RAIN  54  50  87 NW9       29.74F
$$

...ELSEWHERE IN IOWA...


CITY           SKY/WX    TMP DP  RH WIND       PRES   REMARKS
DES MOINES     PTSUNNY   61  44  53 NW12      29.76S
IOWA CITY      CLOUDY    60  48  64 NW18      29.74R
FORT DODGE     PTSUNNY   52  45  76 N6        29.79S
MARSHALLTOWN   CLOUDY    60  47  61 NW12      29.74F
CEDAR RAPIDS   CLOUDY    56  49  77 NW13      29.73R
$$

...NORTHERN ILLINOIS...


CITY           SKY/WX    TMP DP  RH WIND       PRES   REMARKS
CHICAGO-OHARE  LGT RAIN  60  56  86 CALM      29.72S FOG
CHICAGO-MIDWAY TSTM      59  54  83 E7        29.73R
MOLINE         MOSUNNY   66  50  56 NW3       29.70F
ROCKFORD       RAIN      57  53  86 CALM      29.73F FOG
PEORIA         CLOUDY    59  55  87 CALM      29.72F
$$

NOTE: "FAIR" INDICATES FEW OR NO CLOUDS BELOW 12,000 FEET WITH NO
SIGNIFICANT WEATHER AND/OR OBSTRUCTIONS TO VISIBILITY. WIND
SPEEDS ARE IN MILES-PER-HOUR.




USA.gov is the U.S. government's official web portal to all federal, state and local government web resources and services.